Simultaneous Nadir Overpasses (SNOs) Predictions

Prediction of SNOs between LANDSAT-8 and METOP-B Satellite Orbit:

Table of predicted SNOs for the next 14.0 days since TLE Epoch: 4/1/2023
Index Date (LANDSAT-8) Time (LANDSAT-8) Lat,Lon (LANDSAT-8) SZA (LANDSAT-8 ) Date (METOP-B) Time (METOP-B) Lat,Lon (METOP-B) SZA (METOP-B ) Distance(km) Time Diff (sec)
1 04/03/2023 21:56:23 81.14,-109.54 77.61 04/03/2023 21:56:19 81.14,-109.38 77.63 2.74 4
2 04/03/2023 22:45:49 -81.15, 58.39 102.37 04/03/2023 22:46:59 -81.15, 58.27 102.35 2.11 70
3 04/06/2023 16:41:09 -81.12, 148.97 103.48 04/06/2023 16:40:04 -81.12, 149.00 103.50 0.51 65
4 04/06/2023 17:30:34 81.14, -42.99 76.58 04/06/2023 17:30:43 81.14, -43.03 76.58 0.73 9
5 04/09/2023 12:15:18 -81.13,-144.44 104.49 04/09/2023 12:14:26 -81.12,-144.39 104.50 0.85 52
6 04/09/2023 13:04:43 81.15, 23.58 75.56 04/09/2023 13:05:05 81.15, 23.57 75.57 0.44 22
7 04/12/2023 07:49:28 -81.11, -78.18 105.53 04/12/2023 07:48:50 -81.11, -78.27 105.55 1.61 38
8 04/12/2023 08:38:53 81.14, 89.81 74.52 04/12/2023 08:39:29 81.14, 89.67 74.52 2.44 36



Historial Predications of SNOs between LANDSAT-8 and METOP-B
